Погода в Финиксе

США     33°34′11″N   112°03′52″W
темп.,
°C
ветер,
м/с
пор.,
м/с
влажн.,
%
обл.,
%
осадки,
мм/ч
давл.,
гПа
погр.,
м
31 июля, сб
сб3123:00+30ссз4449100 1.6 1015650
02:00+29вюв4447100 0.0 1014635
05:00+29ююв224657 0.0 1014545
08:00+30вюв234341 0.0 1015702
11:00+33ююв22355 0.0 10151284
14:00+36ююз332842 0.0 10131921
17:00+37юз542788 0.0 10102392
20:00+36зюз432826 0.0 10111675
1 августа, вс
вс123:00+35з3330100 0.0 10121153
02:00+34зюз223198 0.0 1011738
05:00+34юз12335 0.0 1012245
08:00+34ююв11325 0.0 1014955
11:00+36юв112813 0.0 10142364
14:00+38зюз22243 0.0 10122836
17:00+40зюз44205 0.0 10103281
20:00+39з43225 0.0 10102911
2 августа, пн
пн223:00+38зюз33235 0.0 1011831
02:00+37з2426100 0.0 1011447
05:00+35з24260 0.0 1012434
08:00+35зюз11240 0.0 1013496
11:00+38юз11200 0.0 10121306
14:00+41зсз33180 0.0 10103324
17:00+42з44160 0.0 10073407
20:00+41з66160 0.0 10071824
3 августа, вт
вт323:00+39зюз57160 0.0 1008557
02:00+37зюз37150 0.0 1008397
05:00+36ююз12170 0.0 1009123
08:00+36в22201 0.0 1010482
11:00+38зсз12160 0.0 10101324
14:00+42з44130 0.0 10071941
17:00+43з55120 0.0 10052943
20:00+42зюз66120 0.0 10041267
4 августа, ср
ср423:00+39зюз711160 0.0 1006788
02:00+36з611301 0.0 1007552
05:00+34зюз59350 0.0 1008522
08:00+34зюз45340 0.0 1010719
11:00+37зюз44260 0.0 10101304
14:00+41з44200 0.0 10081768
17:00+42з67160 0.0 10052020
20:00+41зюз610160 0.0 10041441